Regional Weather Roundup
Issued by NWS

Home | Current Version | Previous Version | Text Only | Print | Product List | Glossary On
Versions: 1 2 3 4 5 6 7 8 9 10 11 12 13 14 15 16 17 18 19 20 21 22 23 24 25 26 27 28 29 30 31 32 33 34 35 36 37 38 39 40 41 42 43 44 45 46 47 48 49 50
000
ASHW40 PHFO 190410
RWRHI

WEATHER ROUNDUP FOR HAWAII
NATIONAL WEATHER SERVICE HONOLULU HI
600 PM HST THU SEP 18 2014

THIS IS AN AUTOMATED REPORT THAT HAS NOT BEEN QUALITY CONTROLLED.

NOTE..."FAIR" INDICATES FEW OR NO CLOUDS BELOW 12,000 FEET WITH NO
SIGNIFICANT WEATHER AND/OR OBSTRUCTIONS TO VISIBILITY.

* - THESE SITES REPORT LIMITED FIELDS

HIZ001>004-190500-
KAUAI-NIIHAU-

CITY           SKY/WX    TMP DP  RH WIND       PRES   REMARKS
LIHUE APT      PTCLDY    82  71  69 NE7       29.93R
PORT ALLEN*    NOT AVBL
POIPU*         NOT AVBL
PRINCEVILLE*   NOT AVBL
KOKOLE POINT*  NOT AVBL
MOLOAA DAIRY*  NOT AVBL
WAIMEA HTS*    NOT AVBL
PUU OPAE*      NOT AVBL
PUU LUA*       NOT AVBL
MAKAHA RIDGE*  NOT AVBL
$$

HIZ005>011-190500-
OAHU-

CITY           SKY/WX    TMP DP  RH WIND       PRES   REMARKS
HONOLULU       MOCLDY    79  71  76 W3        29.91R
KALAELOA       CLOUDY    76  73  91 NW6       29.92S
KANEOHE MCB    NOT AVBL
WHEELER FIELD  CLOUDY    77  71  82 SE1       29.93R
BELLOWS*       NOT AVBL
KAHUKU*        NOT AVBL
WHEELER*       NOT AVBL
WAIANAE HARBOR NOT AVBL
DILLINGHAM*      N/A     82  73  74 NE1         N/A
KAHUKU TRN*      N/A     79  70  73 E5G10       N/A
KAWAILOA*      NOT AVBL
KII*             N/A     82  73  74 E7          N/A
MAKUA RANGE*     N/A     81  73  78 CALM        N/A
OAHU FOREST NW NOT AVBL
SCHOFIELD BRK*   N/A     77  72  83 SE1         N/A
SCHOFIELD S*   NOT AVBL
WAIANAE VLY*   NOT AVBL
KUAOKALA*      NOT AVBL
HONOULIUULI*   NOT AVBL
MOKUOLOE IS*   NOT AVBL
PALEHUA*       NOT AVBL
WAIAWA PHB*    NOT AVBL
$$

HIZ012>013-190500-
MOLOKAI-

CITY           SKY/WX    TMP DP  RH WIND       PRES   REMARKS
MOLOKAI AIRPT  PTCLDY    80  73  79 NE7       29.93R
KALAUPAPA      NOT AVBL
MAKAPULAPAI*   NOT AVBL
MOLOKAI 1*     NOT AVBL
PUU ALII*      NOT AVBL
$$

HIZ016-190500-
KAHOOLAWE-

CITY           SKY/WX    TMP DP  RH WIND       PRES   REMARKS
KAHOOLAWE*     NOT AVBL
HAKIOAWA*      NOT AVBL
HONOKANAIA*      N/A     85  69  59 E8G15     29.92R
KANELOA*         N/A     81  70  69 NE12G18   29.14R
KEALIALALO*    NOT AVBL
LUA MAKIKA*    NOT AVBL
$$

HIZ014>015-190500-
LANAI-

CITY           SKY/WX    TMP DP  RH WIND       PRES   REMARKS
LANAI CITY     MOCLDY    76  73  90 SE3       29.98R
LANAI 1*       NOT AVBL
$$

HIZ017>028-190500-
MAUI-

CITY           SKY/WX    TMP DP  RH WIND       PRES   REMARKS
KAHULUI        PTCLDY    82  70  66 NE13      29.91R
KAPALUA-W MAUI PTCLDY    82  72  69 S6        29.92
HANA AIRPORT   CLEAR     81  68  65 CALM      29.95R
HANA*          NOT AVBL
HALEAKALA SUMM   N/A     54  27  35 NE6         N/A
MAALAEA BAY*   NOT AVBL
HALEAKALA*     NOT AVBL
KAUPO GAP*     NOT AVBL
KULA 1*          N/A     58  57  97 NW3         N/A
$$

HIZ023>026-190500-
BIG ISLAND OF HAWAII COAST AND LOWER SLOPES-

CITY           SKY/WX    TMP DP  RH WIND       PRES   REMARKS
KAILUA KONA    CLEAR     83  71  67 W9        29.90R
HILO           CLOUDY    82  73  74 E3        29.90R
HONOKAA*       NOT AVBL
KAWAIHAE MWT*  NOT AVBL
KAWAIHAE*      NOT AVBL
SOUTH POINT*   NOT AVBL
UPOLU AIRPORT* NOT AVBL
KAMUELA*       CLOUDY    72  66  83 N8        30.04R
HAKALAU*         N/A     58  57  98 S1          N/A
KALOKO-HONOKO* NOT AVBL
PALI 2*        NOT AVBL
KEALAKOMO*       N/A     82  73  74 E9          N/A
KAUPULEHU*     NOT AVBL
KAPAPALA*        N/A     74  68  82 CALM        N/A
LOWER KAHUKU*  NOT AVBL
PUHE CS*       NOT AVBL
PUHO CS*       NOT AVBL
PTA KEAMUKU*     N/A     68  64  88 NW7         N/A
WAIKOLOA*      NOT AVBL
$$

HIZ027>028-190500-
BIG ISLAND OF HAWAII INTERIOR AND SUMMMITS-

CITY           SKY/WX    TMP DP  RH WIND       PRES   REMARKS
BRADSHAW FIELD MOCLDY    64  59  83 W8        30.28R
MK VISITOR CEN NOT AVBL
MAUNA KEA*       N/A     46  19  34 NW10        N/A
MAUNA LOA*     NOT AVBL
MAUNA LOA 1*   NOT AVBL
PTA KIPUKA*      N/A     66  61  82 VRB5        N/A
PTA RANGE 17*    N/A     63  59  88 NW7G13      N/A
PTA WEST*        N/A     66  63  88 N9G15       N/A
NENE CABIN*    NOT AVBL
AHUMOA*        NOT AVBL
PTA PORTABLE*  NOT AVBL
PUU MALI*      NOT AVBL
$$

HIC003-190500-
NORTHWEST ISLANDS-

CITY           SKY/WX    TMP DP  RH WIND       PRES   REMARKS
MIDWAY ISLAND  SUNNY     88  75  66 E9        30.04S HX  97
MIDWAY NOS*    NOT AVBL
FRENCH FRIGATE NOT AVBL
$$

PHZ110>124-180-190500-
BUOY REPORTS

STATION/POSITION TIME  TEMP    WIND        PRES    WAVE   SWELL
                       AIR SEA DIR/SP/G            HT/PER HT/DIR
                 (UTC) (F)     (DEG/KT/KT) (MB)    (FT/S) (FT/D)
BUOY 51001       NOT AVBL
BUOY 51101       NOT AVBL
BUOY 51100       0400   79     100/ 12     1013.4R
BUOY 51003       0300   82 85   40/  4/  4 1012.2R   5/11   5
BUOY 51004       0331   80 81   80/ 14/ 16 1011.7R   6/12   5/ 90
BARBERS PT BUOY  NOT AVBL
WAIMEA BAY BUOY  0400      82                N/A     4/10   2/340
KAILUA BAY BUOY  0400      83                N/A     5/10   2/ 20
LANAI BUOY       NOT AVBL
BARBERS PT 2     0400      83                N/A     3/13   3/170
PAUWELA MAUI     0400      82                N/A     4/ 9   2/ 10
HILO             0400      83                N/A     5/11   3/350
KANEOHE BAY BUOY NOT AVBL
HANALEI KAUAI    NOT AVBL
KAHULUI HARBOR   0300   81 85   10/  9/ 11 1012.7R
HONOLULU HARBOR  0300   79     310/  6/  7 1013.0R
KILO NALU        NOT AVBL
HILO HARBOR      0300   82      50/  4/  5 1012.1R
MOKUOLOE         0300      85  110/  5/  8 1012.9R
NAWILIWILI       0300      85                N/A
WHOTS BUOY       NOT AVBL
BUOY 51028       NOT AVBL
$$

......................KEY........................................
  SKY/WX - SKY CONDITIONS/PRESENT WEATHER
  TMP    - TEMPERATURE IN FAHRENHEIT
  DWPT   - DEWPOINT IN FAHRENHEIT
  RH     - RELATIVE HUMIDITY IN PERCENT
  WIND   - DIRECTION AND SPEED /MPH FOR ISLANDS...KTS FOR BUOYS/
  PRES   - MEAN SEA LEVEL PRESSURE IN INCHES OF HG
  VSB    - VISIBILITY IN MILES
  HX     - HEAT INDEX
  WCI    - WIND CHILL INDEX
  VRB    - VARIABLE WIND DIRECTION
  N/A    - NOT AVAILABLE


USA.gov is the U.S. government's official web portal to all federal, state and local government web resources and services.